STAL28 YSNW-YAMB

Flight info

Callsign STAL28
Flight time 1h 35m
Altitude 27000
Route N0437F270 DCT NWA DCT URKIX DCT WM20C/N0437F300 DCT WM18C/N0435F310 DCT WM20C/N0433F320 DCT WM18C/N0436F310 DCT WM20C/N0433F320 DCT WM18C/N0436F310 DCT WM20C/N0433F320 DCT WM18C/N0436F310 DCT WM20C/N0434F320 DCT WM18C/N0436F310 DCT WM20C/N0434F320 DCT WM18C/N0433F330 DCT WM20C/N0434F320 DCT WM18C/N0433F330 DCT WM20C/N0434F320 DCT WM18C/N0433F330 DCT WM20C/N0434F320 DCT WM18C/N0433F330 DCT WM20C/N0431F340 DCT WM18C/N0433F330 DCT WM20C/N0431F340 DCT WM18C/N0433F330 DCT WM20C/N0431F340 DCT WM18C/N0433F330 DCT WM20C/N0431F340 DCT WM18C/N0433F330 DCT WM20C/N0431F340 DCT WM18C/N0430F350 DCT WM20C/N0431F340 DCT WM18C/N0430F350 DCT WM20C/N0431F340 DCT WM18C/N0430F350 DCT WM20C/N0431F340 DCT WM18C/N0430F350 DCT WM20C/N0429F360 DCT WM18C/N0430F350 DCT WM20C/N0429F360 DCT WM18C/N0430F350 DCT WM20C/N0429F360 DCT WM18C/N0430F350 DCT WM20C/N0428F360 DCT WM18C/N0430F350 DCT WM20C/N0428F360 DCT WM18C/N0426F370 DCT WM20C/N0428F360 DCT WM18C/N0426F370 DCT WM20C/N0428F360 DCT WM18C/N0426F370 DCT WM20C/N0428F360 DCT WM18C/N0426F370 DCT WM20C/N0428F360 DCT WM18C/N0426F370 DCT WM20C/N0425F380 DCT WM18C/N0426F370 DCT WM20C/N0425F380 DCT WM18C/N0426F370 DCT WM20C/N0425F380 DCT WM18C/N0426F370 DCT WM20C/N0425F380 DCT WM18C/N0422F390 DCT WM20C/N0425F380 DCT WM18C DCT CFS/N0417F200 W214 IDNER W760 HUUGO DCT
Aircraft C17/H-SDFGHIJ5KM1RTUWXYZ/LB101

Departure

Time 2026-04-28 07:25
Airport Naval Air Station Nowra - HMAS Albatross (YSNW)

Arrival

Time 2026-04-28 09:00
Airport RAAF Base Amberley (YAMB)
Time Latitude Longitude Altitude Speed Heading
2026-04-28 07:24 -34.93579 150.55189 377 ft 2 kts 311°
2026-04-28 07:24 -34.93579 150.55181 377 ft 1 kts 249°
2026-04-28 07:24 -34.93582 150.55177 379 ft 5 kts 225°
2026-04-28 07:24 -34.93793 150.54946 373 ft 77 kts 225°
2026-04-28 07:25 -34.94350 150.54297 383 ft 139 kts 222°
2026-04-28 07:25 -34.95026 150.53485 969 ft 142 kts 226°
2026-04-28 07:25 -34.95756 150.52560 1393 ft 162 kts 227°
2026-04-28 07:25 -34.96638 150.51423 1466 ft 206 kts 228°
2026-04-28 07:26 -34.97716 150.50021 1569 ft 249 kts 228°
2026-04-28 07:26 -34.99171 150.48682 1955 ft 268 kts 199°
2026-04-28 07:26 -35.01015 150.48585 2725 ft 272 kts 163°
2026-04-28 07:26 -35.02608 150.49821 3505 ft 279 kts 129°
2026-04-28 07:27 -35.03380 150.51971 4250 ft 282 kts 95°
2026-04-28 07:27 -35.03052 150.54302 5021 ft 282 kts 61°
2026-04-28 07:27 -35.01744 150.55999 5787 ft 283 kts 27°
2026-04-28 07:27 -34.99862 150.56697 6561 ft 287 kts
2026-04-28 07:28 -34.97862 150.57103 7277 ft 295 kts
2026-04-28 07:28 -34.95807 150.57481 7994 ft 300 kts
2026-04-28 07:28 -34.93760 150.57926 8725 ft 298 kts 15°
2026-04-28 07:28 -34.91834 150.58875 9471 ft 300 kts 25°
2026-04-28 07:29 -34.89999 150.60122 10240 ft 304 kts 31°
2026-04-28 07:29 -34.88232 150.61562 10937 ft 308 kts 34°
2026-04-28 07:29 -34.86493 150.63095 11667 ft 310 kts 36°
2026-04-28 07:29 -34.84785 150.64716 12410 ft 311 kts 40°
2026-04-28 07:30 -34.83194 150.66511 13177 ft 311 kts 43°
2026-04-28 07:30 -34.81618 150.68326 13883 ft 313 kts 43°
2026-04-28 07:30 -34.80008 150.70139 14481 ft 316 kts 42°
2026-04-28 07:30 -34.78379 150.71952 15034 ft 318 kts 42°
2026-04-28 07:31 -34.76739 150.73787 15579 ft 323 kts 43°
2026-04-28 07:31 -34.75117 150.75607 16143 ft 323 kts 43°
2026-04-28 07:31 -34.73453 150.77472 16646 ft 326 kts 43°
2026-04-28 07:31 -34.71781 150.79342 17191 ft 327 kts 43°
2026-04-28 07:32 -34.70094 150.81230 17729 ft 328 kts 43°
2026-04-28 07:32 -34.68397 150.83126 18238 ft 331 kts 44°
2026-04-28 07:32 -34.66690 150.85031 18736 ft 334 kts 44°
2026-04-28 07:32 -34.64968 150.86953 19128 ft 338 kts 44°
2026-04-28 07:33 -34.63238 150.88886 19507 ft 339 kts 44°
2026-04-28 07:33 -34.61494 150.90826 19923 ft 341 kts 43°
2026-04-28 07:33 -34.59449 150.92294 20231 ft 347 kts 17°
2026-04-28 07:33 -34.57042 150.92442 20563 ft 351 kts 348°
2026-04-28 07:34 -34.54829 150.91248 20880 ft 352 kts 320°
2026-04-28 07:34 -34.53295 150.88978 21179 ft 349 kts 292°
2026-04-28 07:34 -34.52780 150.86184 21488 ft 344 kts 265°
2026-04-28 07:34 -34.53377 150.83440 21767 ft 336 kts 237°
2026-04-28 07:35 -34.54942 150.81418 22056 ft 328 kts 208°
2026-04-28 07:35 -34.57080 150.80585 22362 ft 324 kts 184°
2026-04-28 07:35 -34.59333 150.80393 22745 ft 325 kts 181°
2026-04-28 07:35 -34.61590 150.80256 23121 ft 325 kts 181°
2026-04-28 07:36 -34.63849 150.80101 23489 ft 326 kts 182°
2026-04-28 07:36 -34.66112 150.79888 23865 ft 327 kts 184°
2026-04-28 07:36 -34.68378 150.79596 24147 ft 328 kts 185°
2026-04-28 07:36 -34.70577 150.78841 24408 ft 333 kts 201°
2026-04-28 07:37 -34.72622 150.77483 24673 ft 337 kts 209°
2026-04-28 07:37 -34.74568 150.75877 24955 ft 339 kts 212°
2026-04-28 07:37 -34.76436 150.74110 25222 ft 343 kts 218°
2026-04-28 07:37 -34.78181 150.72118 25489 ft 345 kts 219°
2026-04-28 07:38 -34.79932 150.70113 25758 ft 346 kts 218°
2026-04-28 07:38 -34.81680 150.68150 26009 ft 347 kts 218°
2026-04-28 07:38 -34.83459 150.66154 26275 ft 348 kts 218°
2026-04-28 07:38 -34.85241 150.64144 26535 ft 350 kts 218°
2026-04-28 07:39 -34.87029 150.62124 26787 ft 351 kts 218°
2026-04-28 07:39 -34.88821 150.60102 27037 ft 353 kts 218°
2026-04-28 07:39 -34.90635 150.58055 27183 ft 357 kts 218°
2026-04-28 07:39 -34.92463 150.55941 27248 ft 367 kts 224°
2026-04-28 07:40 -34.93724 150.53178 27289 ft 386 kts 250°
2026-04-28 07:40 -34.93907 150.49849 27313 ft 406 kts 274°
2026-04-28 07:40 -34.92946 150.46560 27334 ft 423 kts 298°
2026-04-28 07:40 -34.90973 150.43880 27337 ft 430 kts 322°
2026-04-28 07:41 -34.88301 150.42274 27319 ft 430 kts 346°
2026-04-28 07:41 -34.85396 150.41988 27323 ft 424 kts
2026-04-28 07:41 -34.82594 150.43058 27322 ft 414 kts 33°
2026-04-28 07:41 -34.80457 150.45238 27319 ft 402 kts 57°
2026-04-28 07:42 -34.79128 150.48177 27313 ft 396 kts 72°
2026-04-28 07:42 -34.78097 150.51283 27306 ft 397 kts 74°
2026-04-28 07:42 -34.77117 150.54430 27292 ft 397 kts 75°
2026-04-28 07:42 -34.76152 150.57570 27278 ft 395 kts 75°
2026-04-28 07:43 -34.75187 150.60677 27281 ft 392 kts 74°
2026-04-28 07:43 -34.74207 150.63771 27277 ft 391 kts 74°
2026-04-28 07:43 -34.73210 150.66851 27284 ft 392 kts 73°
2026-04-28 07:43 -34.72535 150.68896 27287 ft 393 kts 73°
2026-04-28 07:44 -34.70846 150.72864 27310 ft 403 kts 58°
2026-04-28 07:44 -34.69656 150.74611 27315 ft 407 kts 52°
2026-04-28 07:44 -34.67655 150.77065 27312 ft 410 kts 48°
2026-04-28 07:44 -34.65553 150.79409 27302 ft 411 kts 45°
2026-04-28 07:45 -34.63265 150.81509 27303 ft 413 kts 39°
2026-04-28 07:45 -34.60939 150.83542 27304 ft 412 kts 40°
2026-04-28 07:45 -34.58626 150.85601 27308 ft 411 kts 40°
2026-04-28 07:45 -34.56314 150.87664 27306 ft 412 kts 40°
2026-04-28 07:46 -34.54003 150.89713 27306 ft 412 kts 40°
2026-04-28 07:46 -34.51685 150.91767 27311 ft 412 kts 40°
2026-04-28 07:46 -34.49398 150.93796 27307 ft 413 kts 40°
2026-04-28 07:46 -34.47082 150.95850 27309 ft 412 kts 40°
2026-04-28 07:47 -34.44770 150.97896 27309 ft 412 kts 40°
2026-04-28 07:47 -34.42455 150.99946 27312 ft 411 kts 40°
2026-04-28 07:47 -34.40147 151.01987 27310 ft 411 kts 40°
2026-04-28 07:47 -34.37834 151.04030 27314 ft 411 kts 40°
2026-04-28 07:48 -34.35522 151.06073 27313 ft 411 kts 40°
2026-04-28 07:48 -34.33209 151.08113 27315 ft 411 kts 40°
2026-04-28 07:48 -34.30894 151.10155 27313 ft 412 kts 40°
2026-04-28 07:48 -34.28577 151.12197 27314 ft 412 kts 40°
2026-04-28 07:49 -34.26261 151.14236 27313 ft 411 kts 40°
2026-04-28 07:49 -34.23949 151.16270 27312 ft 411 kts 40°
2026-04-28 07:49 -34.21634 151.18306 27317 ft 410 kts 40°
2026-04-28 07:49 -34.19323 151.20338 27314 ft 410 kts 40°
2026-04-28 07:50 -34.17044 151.22338 27313 ft 410 kts 40°
2026-04-28 07:50 -34.14730 151.24369 27316 ft 410 kts 40°
2026-04-28 07:50 -34.12419 151.26396 27316 ft 410 kts 39°
2026-04-28 07:50 -34.10109 151.28421 27316 ft 410 kts 39°
2026-04-28 07:51 -34.07799 151.30443 27317 ft 410 kts 39°
2026-04-28 07:51 -34.05492 151.32462 27316 ft 410 kts 39°
2026-04-28 07:51 -34.03189 151.34477 27315 ft 409 kts 39°
2026-04-28 07:51 -34.00883 151.36492 27316 ft 408 kts 39°
2026-04-28 07:52 -33.98579 151.38504 27317 ft 408 kts 39°
2026-04-28 07:52 -33.96277 151.40513 27318 ft 408 kts 39°
2026-04-28 07:52 -33.94005 151.42495 27317 ft 409 kts 39°
2026-04-28 07:52 -33.91698 151.44505 27316 ft 409 kts 39°
2026-04-28 07:53 -33.89392 151.46514 27316 ft 409 kts 39°
2026-04-28 07:53 -33.87085 151.48522 27317 ft 408 kts 39°
2026-04-28 07:53 -33.84784 151.50523 27316 ft 407 kts 39°
2026-04-28 07:53 -33.82491 151.52517 27319 ft 407 kts 39°
2026-04-28 07:54 -33.80201 151.54506 27321 ft 406 kts 39°
2026-04-28 07:54 -33.77905 151.56498 27317 ft 406 kts 39°
2026-04-28 07:54 -33.75610 151.58489 27319 ft 407 kts 38°
2026-04-28 07:54 -33.73316 151.60478 27316 ft 407 kts 38°
2026-04-28 07:55 -33.71015 151.62471 27318 ft 407 kts 38°
2026-04-28 07:55 -33.68749 151.64433 27317 ft 407 kts 38°
2026-04-28 07:55 -33.66455 151.66418 27316 ft 406 kts 38°
2026-04-28 07:55 -33.64164 151.68398 27318 ft 405 kts 38°
2026-04-28 07:56 -33.61875 151.70375 27318 ft 405 kts 38°
2026-04-28 07:56 -33.59590 151.72349 27320 ft 405 kts 38°
2026-04-28 07:56 -33.57301 151.74323 27319 ft 405 kts 38°
2026-04-28 07:56 -33.55009 151.76299 27319 ft 406 kts 38°
2026-04-28 07:57 -33.52719 151.78273 27314 ft 406 kts 38°
2026-04-28 07:57 -33.50426 151.80247 27324 ft 406 kts 38°
2026-04-28 07:57 -33.48134 151.82219 27320 ft 405 kts 38°
2026-04-28 07:57 -33.45846 151.84188 27304 ft 405 kts 38°
2026-04-28 07:58 -33.43565 151.86155 27307 ft 404 kts 39°
2026-04-28 07:58 -33.41454 151.88358 27314 ft 401 kts 47°
2026-04-28 07:58 -33.39528 151.90775 27309 ft 401 kts 50°
2026-04-28 07:58 -33.37697 151.93289 27314 ft 400 kts 55°
2026-04-28 07:59 -33.36080 151.95992 27321 ft 399 kts 57°
2026-04-28 07:59 -33.34473 151.98703 27330 ft 399 kts 57°
2026-04-28 07:59 -33.32848 152.01399 27324 ft 399 kts 56°
2026-04-28 07:59 -33.31225 152.04089 27331 ft 399 kts 56°
2026-04-28 08:00 -33.29607 152.06777 27321 ft 398 kts 56°
2026-04-28 08:00 -33.27989 152.09462 27320 ft 397 kts 56°
2026-04-28 08:00 -33.26375 152.12138 27332 ft 397 kts 56°
2026-04-28 08:00 -33.24780 152.14781 27317 ft 397 kts 56°
2026-04-28 08:01 -33.23160 152.17461 27327 ft 398 kts 56°
2026-04-28 08:01 -33.21539 152.20143 27328 ft 398 kts 56°
2026-04-28 08:01 -33.19920 152.22820 27325 ft 397 kts 56°
2026-04-28 08:01 -33.18300 152.25494 27329 ft 397 kts 56°
2026-04-28 08:02 -33.16685 152.28160 27326 ft 396 kts 56°
2026-04-28 08:02 -33.15069 152.30826 27337 ft 396 kts 56°
2026-04-28 08:02 -33.13456 152.33484 27325 ft 396 kts 56°
2026-04-28 08:02 -33.11839 152.36146 27337 ft 396 kts 55°
2026-04-28 08:03 -33.10219 152.38813 27324 ft 396 kts 55°
2026-04-28 08:03 -33.08601 152.41474 27332 ft 396 kts 55°
2026-04-28 08:03 -33.06984 152.44131 27335 ft 396 kts 55°
2026-04-28 08:03 -33.05368 152.46785 27325 ft 395 kts 55°
2026-04-28 08:04 -33.03757 152.49430 27326 ft 395 kts 55°
2026-04-28 08:04 -33.02144 152.52074 27326 ft 394 kts 55°
2026-04-28 08:04 -33.00528 152.54722 27335 ft 395 kts 55°
2026-04-28 08:04 -32.98914 152.57366 27331 ft 395 kts 55°
2026-04-28 08:05 -32.97298 152.60011 27318 ft 395 kts 55°
2026-04-28 08:05 -32.95679 152.62657 27332 ft 395 kts 55°
2026-04-28 08:05 -32.94061 152.65300 27333 ft 395 kts 55°
2026-04-28 08:05 -32.92445 152.67940 27324 ft 394 kts 55°
2026-04-28 08:06 -32.90831 152.70573 27334 ft 394 kts 55°
2026-04-28 08:06 -32.89215 152.73208 27328 ft 394 kts 54°
2026-04-28 08:06 -32.87622 152.75806 27330 ft 394 kts 54°
2026-04-28 08:06 -32.86003 152.78441 27338 ft 395 kts 54°
2026-04-28 08:07 -32.84384 152.81075 27325 ft 395 kts 54°
2026-04-28 08:07 -32.82759 152.83717 27326 ft 395 kts 54°
2026-04-28 08:07 -32.81138 152.86352 27333 ft 395 kts 54°
2026-04-28 08:07 -32.79518 152.88981 27327 ft 394 kts 54°
2026-04-28 08:08 -32.77902 152.91603 27325 ft 393 kts 54°
2026-04-28 08:08 -32.76289 152.94220 27333 ft 392 kts 54°
2026-04-28 08:08 -32.74673 152.96837 27338 ft 393 kts 54°
2026-04-28 08:08 -32.73058 152.99452 27325 ft 393 kts 54°
2026-04-28 08:09 -32.71439 153.02074 27331 ft 393 kts 54°
2026-04-28 08:09 -32.69819 153.04692 27327 ft 393 kts 54°
2026-04-28 08:09 -32.68194 153.07315 27329 ft 393 kts 54°
2026-04-28 08:09 -32.66338 153.09662 27330 ft 391 kts 35°
2026-04-28 08:10 -32.63950 153.11197 27339 ft 391 kts 23°
2026-04-28 08:10 -32.61437 153.12350 27339 ft 394 kts 19°
2026-04-28 08:10 -32.58831 153.13371 27330 ft 395 kts 15°
2026-04-28 08:10 -32.56152 153.14077 27329 ft 394 kts 11°
2026-04-28 08:11 -32.53434 153.14744 27321 ft 393 kts 12°
2026-04-28 08:11 -32.50795 153.15419 27321 ft 392 kts 12°
2026-04-28 08:11 -32.48132 153.16102 27323 ft 392 kts 12°
2026-04-28 08:11 -32.45463 153.16782 27330 ft 392 kts 12°
2026-04-28 08:12 -32.42795 153.17460 27335 ft 393 kts 12°
2026-04-28 08:12 -32.40119 153.18140 27324 ft 393 kts 12°
2026-04-28 08:12 -32.37435 153.18823 27329 ft 394 kts 12°
2026-04-28 08:12 -32.34758 153.19503 27326 ft 394 kts 12°
2026-04-28 08:13 -32.32070 153.20185 27324 ft 394 kts 12°
2026-04-28 08:13 -32.29362 153.20566 27330 ft 391 kts 358°
2026-04-28 08:13 -32.26641 153.20337 27328 ft 392 kts 354°
2026-04-28 08:13 -32.23927 153.19997 27326 ft 393 kts 353°
2026-04-28 08:14 -32.21233 153.19666 27328 ft 394 kts 356°
2026-04-28 08:14 -32.18489 153.19564 27327 ft 394 kts 358°
2026-04-28 08:14 -32.15739 153.19476 27327 ft 394 kts 358°
2026-04-28 08:14 -32.12995 153.19363 27320 ft 394 kts 358°
2026-04-28 08:15 -32.10254 153.19247 27323 ft 393 kts 358°
2026-04-28 08:15 -32.07519 153.19137 27325 ft 394 kts 358°
2026-04-28 08:15 -32.04748 153.19025 27321 ft 403 kts 358°
2026-04-28 08:15 -32.01905 153.18909 27323 ft 414 kts 358°
2026-04-28 08:16 -31.98992 153.18790 27325 ft 424 kts 358°
2026-04-28 08:16 -31.96009 153.18668 27327 ft 434 kts 358°
2026-04-28 08:16 -31.92957 153.18544 27318 ft 443 kts 358°
2026-04-28 08:16 -31.89885 153.18419 27323 ft 452 kts 358°
2026-04-28 08:17 -31.86716 153.18290 27324 ft 460 kts 358°
2026-04-28 08:17 -31.83488 153.18158 27322 ft 467 kts 358°
2026-04-28 08:17 -31.80228 153.18025 27315 ft 470 kts 358°
2026-04-28 08:17 -31.76954 153.17892 27322 ft 469 kts 358°
2026-04-28 08:18 -31.73700 153.17760 27316 ft 467 kts 358°
2026-04-28 08:18 -31.70455 153.17628 27320 ft 466 kts 358°
2026-04-28 08:18 -31.67223 153.17498 27317 ft 465 kts 358°
2026-04-28 08:18 -31.63988 153.17365 27317 ft 466 kts 358°
2026-04-28 08:19 -31.60743 153.17235 27318 ft 466 kts 358°
2026-04-28 08:19 -31.57500 153.17103 27318 ft 467 kts 358°
2026-04-28 08:19 -31.54249 153.16971 27314 ft 467 kts 358°
2026-04-28 08:19 -31.51000 153.16841 27318 ft 467 kts 358°
2026-04-28 08:20 -31.47752 153.16709 27315 ft 466 kts 358°
2026-04-28 08:20 -31.44506 153.16578 27322 ft 466 kts 358°
2026-04-28 08:20 -31.41269 153.16447 27325 ft 466 kts 358°
2026-04-28 08:20 -31.38023 153.16317 27321 ft 466 kts 358°
2026-04-28 08:21 -31.34781 153.16186 27319 ft 467 kts 358°
2026-04-28 08:21 -31.31530 153.16055 27313 ft 467 kts 358°
2026-04-28 08:21 -31.28278 153.15924 27322 ft 467 kts 358°
2026-04-28 08:21 -31.25066 153.15795 27316 ft 467 kts 358°
2026-04-28 08:22 -31.21825 153.15664 27313 ft 467 kts 358°
2026-04-28 08:22 -31.18569 153.15534 27321 ft 466 kts 358°
2026-04-28 08:22 -31.15322 153.15404 27310 ft 466 kts 358°
2026-04-28 08:22 -31.12080 153.15273 27318 ft 467 kts 358°
2026-04-28 08:23 -31.08832 153.15144 27314 ft 467 kts 358°
2026-04-28 08:23 -31.05581 153.15014 27316 ft 467 kts 358°
2026-04-28 08:23 -31.02323 153.14883 27313 ft 467 kts 358°
2026-04-28 08:23 -30.99072 153.14755 27315 ft 467 kts 358°
2026-04-28 08:24 -30.95826 153.14529 27318 ft 467 kts 354°
2026-04-28 08:24 -30.92589 153.14277 27313 ft 467 kts 359°
2026-04-28 08:24 -30.89332 153.14303 27310 ft 467 kts 360°
2026-04-28 08:24 -30.86127 153.14168 27315 ft 467 kts 356°
2026-04-28 08:25 -30.82877 153.13981 27312 ft 467 kts 357°
2026-04-28 08:25 -30.79622 153.13828 27312 ft 468 kts 357°
2026-04-28 08:25 -30.76370 153.13672 27314 ft 468 kts 357°
2026-04-28 08:26 -30.69868 153.13357 27311 ft 467 kts 357°
2026-04-28 08:26 -30.66814 153.13211 27317 ft 467 kts 357°
2026-04-28 08:26 -30.63459 153.13050 27305 ft 467 kts 357°
2026-04-28 08:26 -30.60207 153.12895 27317 ft 467 kts 357°
2026-04-28 08:27 -30.56949 153.12740 27314 ft 468 kts 357°
2026-04-28 08:27 -30.53694 153.12584 27318 ft 468 kts 357°
2026-04-28 08:27 -30.50438 153.12429 27315 ft 469 kts 357°
2026-04-28 08:27 -30.47178 153.12275 27314 ft 468 kts 357°
2026-04-28 08:28 -30.43914 153.12120 27310 ft 468 kts 357°
2026-04-28 08:28 -30.40698 153.11966 27316 ft 468 kts 357°
2026-04-28 08:28 -30.37444 153.11812 27314 ft 468 kts 357°
2026-04-28 08:28 -30.34192 153.11658 27309 ft 468 kts 357°
2026-04-28 08:29 -30.30928 153.11502 27317 ft 469 kts 357°
2026-04-28 08:29 -30.27666 153.11348 27307 ft 469 kts 357°
2026-04-28 08:29 -30.24403 153.11194 27314 ft 469 kts 357°
2026-04-28 08:29 -30.21140 153.11039 27315 ft 469 kts 357°
2026-04-28 08:30 -30.17872 153.10884 27317 ft 469 kts 357°
2026-04-28 08:30 -30.15718 153.10783 27310 ft 469 kts 357°
2026-04-28 08:30 -30.12456 153.10628 27312 ft 469 kts 357°
2026-04-28 08:30 -30.09200 153.10475 27312 ft 469 kts 357°
2026-04-28 08:31 -30.05936 153.10321 27310 ft 469 kts 357°
2026-04-28 08:31 -30.02676 153.10167 27307 ft 470 kts 357°
2026-04-28 08:31 -29.99405 153.10012 27299 ft 469 kts 357°
2026-04-28 08:31 -29.96142 153.09859 27296 ft 469 kts 357°
2026-04-28 08:32 -29.92875 153.09706 27298 ft 469 kts 357°
2026-04-28 08:32 -29.89613 153.09551 27295 ft 469 kts 357°
2026-04-28 08:32 -29.86352 153.09399 27300 ft 469 kts 357°
2026-04-28 08:32 -29.83089 153.09245 27290 ft 469 kts 357°
2026-04-28 08:33 -29.79826 153.09092 27297 ft 470 kts 358°
2026-04-28 08:33 -29.76555 153.08939 27291 ft 469 kts 357°
2026-04-28 08:33 -29.73290 153.08786 27296 ft 469 kts 358°
2026-04-28 08:33 -29.70032 153.08633 27292 ft 469 kts 358°
2026-04-28 08:34 -29.66764 153.08480 27292 ft 469 kts 358°
2026-04-28 08:34 -29.63552 153.08330 27286 ft 469 kts 358°
2026-04-28 08:34 -29.60292 153.08178 27290 ft 469 kts 358°
2026-04-28 08:34 -29.57035 153.08025 27293 ft 469 kts 358°
2026-04-28 08:35 -29.53773 153.07873 27292 ft 469 kts 358°
2026-04-28 08:35 -29.50511 153.07721 27291 ft 469 kts 358°
2026-04-28 08:35 -29.47248 153.07568 27290 ft 469 kts 358°
2026-04-28 08:35 -29.43985 153.07417 27286 ft 469 kts 358°
2026-04-28 08:36 -29.40722 153.07265 27285 ft 468 kts 358°
2026-04-28 08:36 -29.37465 153.07112 27293 ft 468 kts 358°
2026-04-28 08:36 -29.34208 153.06961 27294 ft 469 kts 358°
2026-04-28 08:36 -29.30946 153.06810 27282 ft 469 kts 358°
2026-04-28 08:37 -29.27687 153.06658 27288 ft 469 kts 358°
2026-04-28 08:37 -29.24425 153.06506 27292 ft 469 kts 358°
2026-04-28 08:37 -29.21167 153.06356 27281 ft 469 kts 358°
2026-04-28 08:37 -29.17903 153.06204 27287 ft 468 kts 358°
2026-04-28 08:38 -29.14692 153.06055 27286 ft 468 kts 358°
2026-04-28 08:38 -29.11442 153.05906 27285 ft 468 kts 358°
2026-04-28 08:38 -29.08184 153.05754 27287 ft 468 kts 358°
2026-04-28 08:38 -29.04931 153.05603 27286 ft 468 kts 358°
2026-04-28 08:39 -29.01674 153.05454 27288 ft 469 kts 358°
2026-04-28 08:39 -28.98411 153.05302 27286 ft 469 kts 358°
2026-04-28 08:39 -28.95153 153.05152 27288 ft 469 kts 358°
2026-04-28 08:39 -28.91894 153.05002 27283 ft 468 kts 358°
2026-04-28 08:40 -28.88637 153.04848 27278 ft 468 kts 358°
2026-04-28 08:40 -28.85403 153.04508 27289 ft 468 kts 352°
2026-04-28 08:40 -28.82167 153.03958 27287 ft 469 kts 352°
2026-04-28 08:40 -28.78935 153.03452 27281 ft 469 kts 353°
2026-04-28 08:41 -28.75693 153.02943 27282 ft 470 kts 352°
2026-04-28 08:41 -28.72496 153.02434 27287 ft 470 kts 353°
2026-04-28 08:41 -28.69244 153.01921 27286 ft 470 kts 353°
2026-04-28 08:41 -28.66004 153.01412 27281 ft 469 kts 353°
2026-04-28 08:42 -28.62765 153.00901 27285 ft 469 kts 353°
2026-04-28 08:42 -28.59530 153.00391 27285 ft 469 kts 352°
2026-04-28 08:42 -28.56300 152.99884 27286 ft 469 kts 352°
2026-04-28 08:42 -28.53058 152.99375 27288 ft 470 kts 352°
2026-04-28 08:43 -28.49820 152.98865 27287 ft 470 kts 352°
2026-04-28 08:43 -28.46575 152.98357 27286 ft 471 kts 353°
2026-04-28 08:43 -28.43332 152.97848 27282 ft 471 kts 353°
2026-04-28 08:43 -28.40078 152.97337 27285 ft 472 kts 353°
2026-04-28 08:44 -28.36827 152.96828 27281 ft 472 kts 352°
2026-04-28 08:44 -28.33632 152.96328 27276 ft 471 kts 352°
2026-04-28 08:44 -28.30370 152.95817 27275 ft 470 kts 352°
2026-04-28 08:44 -28.27129 152.95311 27272 ft 469 kts 352°
2026-04-28 08:45 -28.23891 152.94804 27274 ft 469 kts 352°
2026-04-28 08:45 -28.20663 152.94300 27274 ft 468 kts 352°
2026-04-28 08:45 -28.17434 152.93796 27267 ft 468 kts 352°
2026-04-28 08:45 -28.14201 152.93292 27260 ft 468 kts 352°
2026-04-28 08:46 -28.11012 152.92589 27266 ft 467 kts 341°
2026-04-28 08:46 -28.08008 152.91178 27268 ft 468 kts 335°
2026-04-28 08:46 -28.05055 152.89606 27268 ft 469 kts 334°
2026-04-28 08:46 -28.02074 152.88100 27120 ft 472 kts 338°
2026-04-28 08:47 -27.98974 152.86779 26199 ft 476 kts 339°
2026-04-28 08:47 -27.95923 152.85439 25485 ft 465 kts 338°
2026-04-28 08:47 -27.92952 152.84119 24771 ft 453 kts 338°
2026-04-28 08:47 -27.90048 152.82838 24085 ft 444 kts 339°
2026-04-28 08:48 -27.87188 152.81577 23319 ft 439 kts 339°
2026-04-28 08:48 -27.84352 152.80328 22517 ft 435 kts 339°
2026-04-28 08:48 -27.81544 152.79090 21738 ft 430 kts 339°
2026-04-28 08:48 -27.78763 152.77864 20962 ft 425 kts 339°
2026-04-28 08:49 -27.76023 152.76659 20230 ft 421 kts 339°
2026-04-28 08:49 -27.73338 152.75477 19513 ft 417 kts 339°
2026-04-28 08:49 -27.70645 152.74293 18811 ft 414 kts 339°
2026-04-28 08:49 -27.67967 152.73117 18057 ft 411 kts 340°
2026-04-28 08:50 -27.65315 152.71952 17285 ft 406 kts 340°
2026-04-28 08:50 -27.62695 152.70801 16508 ft 401 kts 340°
2026-04-28 08:50 -27.60109 152.69667 15761 ft 397 kts 340°
2026-04-28 08:50 -27.57626 152.68576 14879 ft 348 kts 340°
2026-04-28 08:51 -27.55478 152.67633 14048 ft 324 kts 340°
2026-04-28 08:51 -27.53466 152.66754 13043 ft 306 kts 340°
2026-04-28 08:51 -27.51453 152.65876 11361 ft 311 kts 340°
2026-04-28 08:51 -27.49464 152.65002 9571 ft 301 kts 340°
2026-04-28 08:52 -27.47530 152.64153 8382 ft 292 kts 340°
2026-04-28 08:52 -27.45645 152.63330 7685 ft 289 kts 340°
2026-04-28 08:52 -27.43799 152.62522 7319 ft 279 kts 340°
2026-04-28 08:52 -27.42036 152.61747 7162 ft 266 kts 340°
2026-04-28 08:53 -27.40373 152.61013 7075 ft 255 kts 340°
2026-04-28 08:53 -27.38754 152.60297 7027 ft 246 kts 340°
2026-04-28 08:53 -27.37079 152.59564 7131 ft 270 kts 347°
2026-04-28 08:53 -27.35237 152.59887 7400 ft 281 kts 40°
2026-04-28 08:54 -27.34264 152.61723 6811 ft 274 kts 89°
2026-04-28 08:54 -27.34898 152.63621 6056 ft 259 kts 136°
2026-04-28 08:54 -27.36500 152.64344 5571 ft 253 kts 178°
2026-04-28 08:54 -27.38236 152.64145 5011 ft 253 kts 184°
2026-04-28 08:55 -27.39991 152.63909 4504 ft 247 kts 184°
2026-04-28 08:55 -27.41620 152.63696 4569 ft 228 kts 183°
2026-04-28 08:55 -27.43175 152.63505 4214 ft 217 kts 181°
2026-04-28 08:55 -27.44637 152.63486 3665 ft 207 kts 175°
2026-04-28 08:56 -27.46067 152.63651 3109 ft 203 kts 166°
2026-04-28 08:56 -27.47380 152.64028 2968 ft 181 kts 159°
2026-04-28 08:56 -27.48529 152.64510 2831 ft 174 kts 156°
2026-04-28 08:56 -27.49604 152.65012 2666 ft 161 kts 155°
2026-04-28 08:57 -27.50598 152.65475 2507 ft 148 kts 155°
2026-04-28 08:57 -27.51582 152.65915 2360 ft 163 kts 155°
2026-04-28 08:57 -27.52715 152.66412 2156 ft 184 kts 156°
2026-04-28 08:57 -27.53906 152.66921 1862 ft 185 kts 157°
2026-04-28 08:58 -27.55061 152.67407 1569 ft 168 kts 157°
2026-04-28 08:58 -27.56123 152.67870 1335 ft 159 kts 156°
2026-04-28 08:58 -27.57152 152.68325 1109 ft 166 kts 157°
2026-04-28 08:58 -27.58178 152.68769 871 ft 150 kts 159°
2026-04-28 08:59 -27.59133 152.69180 652 ft 144 kts 157°
2026-04-28 08:59 -27.60069 152.69587 634 ft 146 kts 157°
2026-04-28 08:59 -27.60981 152.69987 405 ft 133 kts 158°
2026-04-28 08:59 -27.61808 152.70366 201 ft 127 kts 157°
2026-04-28 09:00 -27.62612 152.70717 105 ft 112 kts 159°
2026-04-28 09:00 -27.63167 152.70963 102 ft 61 kts 160°
2026-04-28 09:00 -27.63465 152.71091 102 ft 13 kts 163°
2026-04-28 09:00 -27.63430 152.71079 101 ft 14 kts 164°
2026-04-28 09:01 -27.63369 152.71051 100 ft 3 kts 161°
2026-04-28 09:01 -27.63387 152.71045 99 ft 2 kts 226°
2026-04-28 09:01 -27.63392 152.70994 97 ft 12 kts 275°
2026-04-28 09:01 -27.63378 152.70911 101 ft 9 kts 281°
2026-04-28 09:02 -27.63365 152.70853 101 ft 7 kts 302°
2026-04-28 09:02 -27.63306 152.70810 102 ft 14 kts 338°
2026-04-28 09:02 -27.63215 152.70768 102 ft 13 kts 342°
2026-04-28 09:02 -27.63131 152.70735 101 ft 17 kts 338°
2026-04-28 09:03 -27.62995 152.70670 104 ft 21 kts 339°
2026-04-28 09:03 -27.62869 152.70616 104 ft 19 kts 339°
2026-04-28 09:03 -27.62754 152.70566 103 ft 17 kts 337°
2026-04-28 09:03 -27.62654 152.70520 103 ft 15 kts 339°
2026-04-28 09:04 -27.62566 152.70477 102 ft 11 kts 327°
2026-04-28 09:04 -27.62512 152.70450 101 ft 11 kts 347°
2026-04-28 09:04 -27.62424 152.70421 101 ft 14 kts 342°
2026-04-28 09:04 -27.62328 152.70380 100 ft 14 kts 339°
2026-04-28 09:05 -27.62244 152.70344 101 ft 12 kts 339°
2026-04-28 09:05 -27.62177 152.70313 104 ft 9 kts 338°
2026-04-28 09:05 -27.62130 152.70289 103 ft 6 kts 335°
2026-04-28 09:05 -27.62093 152.70267 103 ft 5 kts 328°
2026-04-28 09:06 -27.62076 152.70245 104 ft 6 kts 295°
2026-04-28 09:06 -27.62092 152.70165 99 ft 11 kts 240°
2026-04-28 09:06 -27.62126 152.70146 99 ft 2 kts 173°
2026-04-28 09:06 -27.62152 152.70155 100 ft 5 kts 160°
2026-04-28 09:07 -27.62167 152.70161 99 ft 0 kts 159°